Terminal Aerodrome Forecast
Issued by NWS Louisville, KY

Home | Current Version | Previous Version | Text Only | Print | Product List | Glossary On
Versions: 1 2 3 4 5 6 7 8 9 10 11 12 13 14 15 16 17 18 19
000
FTUS43 KLMK 180200 AAA
TAFSDF
TAF AMD
KSDF 180208Z 1802/1906 31006KT P6SM BKN018
     FM180600 36003KT P6SM SCT010 BKN150
     FM181500 33004KT P6SM SCT015 OVC060=

USA.gov is the U.S. government's official web portal to all federal, state and local government web resources and services.